Year,Month,Day,Hour,Minute,Value (Times are PST for barometer in hPa)
2016,03,06,00,00,984.00
2016,03,06,00,01,984.00
2016,03,06,00,03,984.00
2016,03,06,00,04,984.00
2016,03,06,00,05,984.00
2016,03,06,00,06,984.00
2016,03,06,00,07,984.00
2016,03,06,00,08,984.00
2016,03,06,00,09,984.00
2016,03,06,00,10,984.00
2016,03,06,00,11,984.00
2016,03,06,00,12,984.00
2016,03,06,00,13,984.20
2016,03,06,00,14,984.20
2016,03,06,00,15,984.20
2016,03,06,00,16,984.20
2016,03,06,00,17,984.20
2016,03,06,00,18,984.20
2016,03,06,00,19,984.20
2016,03,06,00,20,984.20
2016,03,06,00,21,984.20
2016,03,06,00,22,984.20
2016,03,06,00,23,984.20
2016,03,06,00,24,984.20
2016,03,06,00,25,984.20
2016,03,06,00,26,984.20
2016,03,06,00,27,984.20
2016,03,06,00,28,984.30
2016,03,06,00,29,984.30
2016,03,06,00,30,984.30
2016,03,06,00,31,984.30
2016,03,06,00,32,984.30
2016,03,06,00,33,984.30
2016,03,06,00,34,984.30
2016,03,06,00,35,984.30
2016,03,06,00,36,984.30
2016,03,06,00,37,984.30
2016,03,06,00,38,984.30
2016,03,06,00,39,984.30
2016,03,06,00,40,984.30
2016,03,06,00,41,984.30
2016,03,06,00,42,984.30
2016,03,06,00,43,984.30
2016,03,06,00,44,984.30
2016,03,06,00,45,984.30
2016,03,06,00,46,984.30
2016,03,06,00,47,984.30
2016,03,06,00,50,984.30
2016,03,06,00,51,984.30
2016,03,06,00,52,984.30
2016,03,06,00,53,984.30
2016,03,06,00,54,984.30
2016,03,06,00,56,984.30
2016,03,06,00,57,984.30
2016,03,06,00,58,984.30
2016,03,06,01,00,984.30
2016,03,06,01,01,984.30
2016,03,06,01,02,984.30
2016,03,06,01,03,984.30
2016,03,06,01,04,984.30
2016,03,06,01,05,984.30
2016,03,06,01,06,984.30
2016,03,06,01,07,984.30
2016,03,06,01,09,984.30
2016,03,06,01,10,984.30
2016,03,06,01,11,984.30
2016,03,06,01,12,984.30
2016,03,06,01,13,984.80
2016,03,06,01,14,984.80
2016,03,06,01,15,984.80
2016,03,06,01,16,984.80
2016,03,06,01,17,984.80
2016,03,06,01,18,984.80
2016,03,06,01,19,984.80
2016,03,06,01,20,984.80
2016,03,06,01,21,984.80
2016,03,06,01,22,984.80
2016,03,06,01,23,984.80
2016,03,06,01,24,984.80
2016,03,06,01,25,984.80
2016,03,06,01,26,984.80
2016,03,06,01,27,984.80
2016,03,06,01,28,985.80
2016,03,06,01,29,985.80
2016,03,06,01,30,985.80
2016,03,06,01,32,985.80
2016,03,06,01,33,985.80
2016,03,06,01,34,985.80
2016,03,06,01,35,985.80
2016,03,06,01,36,985.80
2016,03,06,01,37,985.80
2016,03,06,01,38,985.80
2016,03,06,01,39,985.80
2016,03,06,01,40,985.80
2016,03,06,01,41,985.80
2016,03,06,01,42,985.80
2016,03,06,01,43,986.80
2016,03,06,01,44,986.80
2016,03,06,01,45,986.80
2016,03,06,01,46,986.80
2016,03,06,01,47,986.80
2016,03,06,01,48,986.80
2016,03,06,01,49,986.80
2016,03,06,01,50,986.80
2016,03,06,01,51,986.80
2016,03,06,01,52,986.80
2016,03,06,01,53,986.80
2016,03,06,01,54,986.80
2016,03,06,01,55,986.80
2016,03,06,01,56,986.80
2016,03,06,01,57,986.80
2016,03,06,01,58,987.40
2016,03,06,01,59,987.40
2016,03,06,02,00,987.40
2016,03,06,02,01,987.40
2016,03,06,02,02,987.40
2016,03,06,02,03,987.40
2016,03,06,02,04,987.40
2016,03,06,02,05,987.40
2016,03,06,02,06,987.40
2016,03,06,02,07,987.40
2016,03,06,02,08,987.40
2016,03,06,02,09,987.40
2016,03,06,02,10,987.40
2016,03,06,02,11,987.40
2016,03,06,02,12,987.40
2016,03,06,02,13,987.70
2016,03,06,02,14,987.70
2016,03,06,02,15,987.70
2016,03,06,02,16,987.70
2016,03,06,02,17,987.70
2016,03,06,02,18,987.70
2016,03,06,02,19,987.70
2016,03,06,02,20,987.70
2016,03,06,02,21,987.70
2016,03,06,02,22,987.70
2016,03,06,02,23,987.70
2016,03,06,02,24,987.70
2016,03,06,02,25,987.70
2016,03,06,02,26,987.70
2016,03,06,02,28,987.80
2016,03,06,02,29,987.80
2016,03,06,02,30,987.80
2016,03,06,02,31,987.80
2016,03,06,02,32,987.80
2016,03,06,02,33,987.80
2016,03,06,02,34,987.80
2016,03,06,02,35,987.80
2016,03,06,02,36,987.80
2016,03,06,02,37,987.80
2016,03,06,02,38,987.80
2016,03,06,02,39,987.80
2016,03,06,02,40,987.80
2016,03,06,02,41,987.80
2016,03,06,02,42,987.80
2016,03,06,02,43,987.30
2016,03,06,02,44,987.30
2016,03,06,02,45,987.30
2016,03,06,02,46,987.30
2016,03,06,02,47,987.30
2016,03,06,02,48,987.30
2016,03,06,02,49,987.30
2016,03,06,02,50,987.30
2016,03,06,02,51,987.30
2016,03,06,02,52,987.30
2016,03,06,02,53,987.30
2016,03,06,02,54,987.30
2016,03,06,02,55,987.30
2016,03,06,02,56,987.30
2016,03,06,02,57,987.30
2016,03,06,02,58,987.40
2016,03,06,02,59,987.40
2016,03,06,03,00,987.40
2016,03,06,03,01,987.40
2016,03,06,03,02,987.40
2016,03,06,03,03,987.40
2016,03,06,03,04,987.40
2016,03,06,03,05,987.40
2016,03,06,03,06,987.40
2016,03,06,03,07,987.40
2016,03,06,03,08,987.40
2016,03,06,03,10,987.40
2016,03,06,03,11,987.40
2016,03,06,03,12,987.40
2016,03,06,03,13,987.40
2016,03,06,03,14,987.40
2016,03,06,03,15,987.40
2016,03,06,03,16,987.40
2016,03,06,03,17,987.40
2016,03,06,03,18,987.40
2016,03,06,03,19,987.40
2016,03,06,03,20,987.40
2016,03,06,03,21,987.40
2016,03,06,03,22,987.40
2016,03,06,03,23,987.40
2016,03,06,03,24,987.40
2016,03,06,03,25,987.40
2016,03,06,03,26,987.40
2016,03,06,03,27,987.40
2016,03,06,03,28,987.80
2016,03,06,03,29,987.80
2016,03,06,03,30,987.80
2016,03,06,03,31,987.80
2016,03,06,03,32,987.80
2016,03,06,03,33,987.80
2016,03,06,03,34,987.80
2016,03,06,03,35,987.80
2016,03,06,03,36,987.80
2016,03,06,03,37,987.80
2016,03,06,03,38,987.80
2016,03,06,03,39,987.80
2016,03,06,03,40,987.80
2016,03,06,03,41,987.80
2016,03,06,03,42,987.80
2016,03,06,03,43,987.90
2016,03,06,03,44,987.90
2016,03,06,03,45,987.90
2016,03,06,03,46,987.90
2016,03,06,03,47,987.90
2016,03,06,03,48,987.90
2016,03,06,03,49,987.90
2016,03,06,03,50,987.90
2016,03,06,03,51,987.90
2016,03,06,03,52,987.90
2016,03,06,03,53,987.90
2016,03,06,03,54,987.90
2016,03,06,03,55,987.90
2016,03,06,03,56,987.90
2016,03,06,03,57,987.90
2016,03,06,03,58,987.90
2016,03,06,03,59,988.00
2016,03,06,04,00,988.00
2016,03,06,04,01,988.00
2016,03,06,04,02,988.00
2016,03,06,04,03,988.00
2016,03,06,04,04,988.00
2016,03,06,04,05,988.00
2016,03,06,04,06,988.00
2016,03,06,04,07,988.00
2016,03,06,04,09,988.00
2016,03,06,04,10,988.00
2016,03,06,04,11,988.00
2016,03,06,04,12,988.00
2016,03,06,04,13,988.00
2016,03,06,04,14,988.50
2016,03,06,04,15,988.50
2016,03,06,04,16,988.50
2016,03,06,04,17,988.50
2016,03,06,04,18,988.50
2016,03,06,04,21,988.50
2016,03,06,04,22,988.50
2016,03,06,04,23,988.50
2016,03,06,04,24,988.50
2016,03,06,04,25,988.50
2016,03,06,04,26,988.50
2016,03,06,04,27,988.50
2016,03,06,04,28,988.50
2016,03,06,04,29,988.80
2016,03,06,04,30,988.80
2016,03,06,04,31,988.80
2016,03,06,04,32,988.80
2016,03,06,04,33,988.80
2016,03,06,04,34,988.80
2016,03,06,04,35,988.80
2016,03,06,04,36,988.80
2016,03,06,04,37,988.80
2016,03,06,04,38,988.80
2016,03,06,04,39,988.80
2016,03,06,04,40,988.80
2016,03,06,04,41,988.80
2016,03,06,04,42,988.80
2016,03,06,04,43,988.80
2016,03,06,04,44,989.40
2016,03,06,04,45,989.40
2016,03,06,04,46,989.40
2016,03,06,04,47,989.40
2016,03,06,04,48,989.40
2016,03,06,04,49,989.40
2016,03,06,04,50,989.40
2016,03,06,04,51,989.40
2016,03,06,04,52,989.40
2016,03,06,04,53,989.40
2016,03,06,04,54,989.40
2016,03,06,04,55,989.40
2016,03,06,04,56,989.40
2016,03,06,04,57,989.40
2016,03,06,04,58,989.40
2016,03,06,04,59,989.90
2016,03,06,05,00,989.90
2016,03,06,05,01,989.90
2016,03,06,05,02,989.90
2016,03,06,05,03,989.90
2016,03,06,05,04,989.90
2016,03,06,05,05,989.90
2016,03,06,05,06,989.90
2016,03,06,05,07,989.90
2016,03,06,05,08,989.90
2016,03,06,05,09,989.90
2016,03,06,05,11,989.90
2016,03,06,05,12,989.90
2016,03,06,05,13,989.90
2016,03,06,05,14,990.70
2016,03,06,05,15,990.70
2016,03,06,05,16,990.70
2016,03,06,05,17,990.70
2016,03,06,05,18,990.70
2016,03,06,05,19,990.70
2016,03,06,05,20,990.70
2016,03,06,05,21,990.70
2016,03,06,05,22,990.70
2016,03,06,05,23,990.70
2016,03,06,05,24,990.70
2016,03,06,05,25,990.70
2016,03,06,05,26,990.70
2016,03,06,05,27,990.70
2016,03,06,05,28,990.70
2016,03,06,05,29,991.00
2016,03,06,05,30,991.00
2016,03,06,05,31,991.00
2016,03,06,05,32,991.00
2016,03,06,05,33,991.00
2016,03,06,05,34,991.00
2016,03,06,05,35,991.00
2016,03,06,05,36,991.00
2016,03,06,05,37,991.00
2016,03,06,05,38,991.00
2016,03,06,05,39,991.00
2016,03,06,05,41,991.00
2016,03,06,05,42,991.00
2016,03,06,05,43,991.00
2016,03,06,05,44,991.70
2016,03,06,05,45,991.70
2016,03,06,05,46,991.70
2016,03,06,05,47,991.70
2016,03,06,05,48,991.70
2016,03,06,05,49,991.70
2016,03,06,05,50,991.70
2016,03,06,05,51,991.70
2016,03,06,05,52,991.70
2016,03,06,05,53,991.70
2016,03,06,05,54,991.70
2016,03,06,05,55,991.70
2016,03,06,05,56,991.70
2016,03,06,05,57,991.70
2016,03,06,05,58,991.70
2016,03,06,05,59,991.80
2016,03,06,06,00,991.80
2016,03,06,06,02,991.80
2016,03,06,06,03,991.80
2016,03,06,06,04,991.80
2016,03,06,06,05,991.80
2016,03,06,06,07,991.80
2016,03,06,06,08,991.80
2016,03,06,06,09,991.80
2016,03,06,06,10,991.80
2016,03,06,06,11,991.80
2016,03,06,06,12,991.80
2016,03,06,06,13,991.80
2016,03,06,06,14,992.10
2016,03,06,06,15,992.10
2016,03,06,06,16,992.10
2016,03,06,06,17,992.10
2016,03,06,06,18,992.10
2016,03,06,06,19,992.10
2016,03,06,06,20,992.10
2016,03,06,06,21,992.10
2016,03,06,06,22,992.10
2016,03,06,06,23,992.10
2016,03,06,06,24,992.10
2016,03,06,06,25,992.10
2016,03,06,06,26,992.10
2016,03,06,06,27,992.10
2016,03,06,06,28,992.10
2016,03,06,06,29,992.10
2016,03,06,06,30,992.10
2016,03,06,06,31,992.10
2016,03,06,06,32,992.10
2016,03,06,06,33,992.10
2016,03,06,06,34,992.10
2016,03,06,06,35,992.10
2016,03,06,06,36,992.10
2016,03,06,06,37,992.10
2016,03,06,06,38,992.10
2016,03,06,06,39,992.10
2016,03,06,06,40,992.10
2016,03,06,06,41,992.10
2016,03,06,06,42,992.10
2016,03,06,06,43,992.10
2016,03,06,06,44,992.10
2016,03,06,06,45,992.10
2016,03,06,06,46,992.10
2016,03,06,06,47,992.10
2016,03,06,06,48,992.10
2016,03,06,06,49,992.10
2016,03,06,06,50,992.10
2016,03,06,06,51,992.10
2016,03,06,06,52,992.10
2016,03,06,06,53,992.10
2016,03,06,06,54,992.10
2016,03,06,06,55,992.10
2016,03,06,06,56,992.10
2016,03,06,06,57,992.10
2016,03,06,06,58,992.10
2016,03,06,06,59,992.60
2016,03,06,07,00,992.60
2016,03,06,07,01,992.60
2016,03,06,07,02,992.60
2016,03,06,07,04,992.60
2016,03,06,07,06,992.60
2016,03,06,07,07,992.60
2016,03,06,07,08,992.60
2016,03,06,07,09,992.60
2016,03,06,07,10,992.60
2016,03,06,07,11,992.60
2016,03,06,07,13,992.60
2016,03,06,07,14,993.10
2016,03,06,07,15,993.10
2016,03,06,07,16,993.10
2016,03,06,07,18,993.10
2016,03,06,07,19,993.10
2016,03,06,07,20,993.10
2016,03,06,07,21,993.10
2016,03,06,07,22,993.10
2016,03,06,07,23,993.10
2016,03,06,07,24,993.10
2016,03,06,07,25,993.10
2016,03,06,07,27,993.10
2016,03,06,07,28,993.10
2016,03,06,07,29,993.60
2016,03,06,07,30,993.60
2016,03,06,07,31,993.60
2016,03,06,07,32,993.60
2016,03,06,07,33,993.60
2016,03,06,07,34,993.60
2016,03,06,07,35,993.60
2016,03,06,07,36,993.60
2016,03,06,07,37,993.60
2016,03,06,07,38,993.60
2016,03,06,07,39,993.60
2016,03,06,07,40,993.60
2016,03,06,07,41,993.60
2016,03,06,07,42,993.60
2016,03,06,07,43,993.60
2016,03,06,07,44,993.70
2016,03,06,07,45,993.70
2016,03,06,07,46,993.70
2016,03,06,07,47,993.70
2016,03,06,07,48,993.70
2016,03,06,07,49,993.70
2016,03,06,07,50,993.70
2016,03,06,07,51,993.70
2016,03,06,07,52,993.70
2016,03,06,07,53,993.70
2016,03,06,07,54,993.70
2016,03,06,07,55,993.70
2016,03,06,07,56,993.70
2016,03,06,07,57,993.70
2016,03,06,07,58,993.70
2016,03,06,07,59,993.40
2016,03,06,08,00,993.40
2016,03,06,08,02,993.40
2016,03,06,08,04,993.40
2016,03,06,08,05,993.40
2016,03,06,08,06,993.40
2016,03,06,08,07,993.40
2016,03,06,08,08,993.40
2016,03,06,08,09,993.40
2016,03,06,08,10,993.40
2016,03,06,08,11,993.40
2016,03,06,08,12,993.40
2016,03,06,08,13,993.40
2016,03,06,08,14,993.70
2016,03,06,08,15,993.70
2016,03,06,08,17,993.70
2016,03,06,08,18,993.70
2016,03,06,08,20,993.70
2016,03,06,08,21,993.70
2016,03,06,08,22,993.70
2016,03,06,08,23,993.70
2016,03,06,08,24,993.70
2016,03,06,08,25,993.70
2016,03,06,08,26,993.70
2016,03,06,08,27,993.70
2016,03,06,08,28,993.70
2016,03,06,08,29,994.10
2016,03,06,08,30,994.10
2016,03,06,08,31,994.10
2016,03,06,08,32,994.10
2016,03,06,08,33,994.10
2016,03,06,08,34,994.10
2016,03,06,08,35,994.10
2016,03,06,08,36,994.10
2016,03,06,08,37,994.10
2016,03,06,08,38,994.10
2016,03,06,08,39,994.10
2016,03,06,08,40,994.10
2016,03,06,08,41,994.10
2016,03,06,08,42,994.10
2016,03,06,08,43,994.10
2016,03,06,08,44,994.20
2016,03,06,08,45,994.20
2016,03,06,08,46,994.20
2016,03,06,08,47,994.20
2016,03,06,08,48,994.20
2016,03,06,08,49,994.20
2016,03,06,08,50,994.20
2016,03,06,08,51,994.20
2016,03,06,08,52,994.20
2016,03,06,08,54,994.20
2016,03,06,08,56,994.20
2016,03,06,08,57,994.20
2016,03,06,08,58,994.20
2016,03,06,08,59,994.60
2016,03,06,09,00,994.60
2016,03,06,09,01,994.60
2016,03,06,09,03,994.60
2016,03,06,09,04,994.60
2016,03,06,09,05,994.60
2016,03,06,09,06,994.60
2016,03,06,09,07,994.60
2016,03,06,09,08,994.60
2016,03,06,09,09,994.60
2016,03,06,09,10,994.60
2016,03,06,09,11,994.60
2016,03,06,09,12,994.60
2016,03,06,09,13,994.60
2016,03,06,09,14,994.70
2016,03,06,09,15,994.70
2016,03,06,09,16,994.70
2016,03,06,09,17,994.70
2016,03,06,09,18,994.70
2016,03,06,09,19,994.70
2016,03,06,09,20,994.70
2016,03,06,09,21,994.70
2016,03,06,09,22,994.70
2016,03,06,09,23,994.70
2016,03,06,09,24,994.70
2016,03,06,09,26,994.70
2016,03,06,09,27,994.70
2016,03,06,09,28,994.70
2016,03,06,09,29,994.80
2016,03,06,09,30,994.80
2016,03,06,09,31,994.80
2016,03,06,09,32,994.80
2016,03,06,09,33,994.80
2016,03,06,09,34,994.80
2016,03,06,09,35,994.80
2016,03,06,09,36,994.80
2016,03,06,09,37,994.80
2016,03,06,09,38,994.80
2016,03,06,09,39,994.80
2016,03,06,09,40,994.80
2016,03,06,09,41,994.80
2016,03,06,09,42,994.80
2016,03,06,09,43,994.80
2016,03,06,09,44,994.70
2016,03,06,09,45,994.70
2016,03,06,09,46,994.70
2016,03,06,09,47,994.70
2016,03,06,09,50,994.70
2016,03,06,09,51,994.70
2016,03,06,09,52,994.70
2016,03,06,09,53,994.70
2016,03,06,09,54,994.70
2016,03,06,09,55,994.70
2016,03,06,09,56,994.70
2016,03,06,09,57,994.70
2016,03,06,09,58,994.70
2016,03,06,09,59,995.00
2016,03,06,10,00,995.00
2016,03,06,10,01,995.00
2016,03,06,10,02,995.00
2016,03,06,10,03,995.00
2016,03,06,10,04,995.00
2016,03,06,10,05,995.00
2016,03,06,10,06,995.00
2016,03,06,10,07,995.00
2016,03,06,10,08,995.00
2016,03,06,10,09,995.00
2016,03,06,10,10,995.00
2016,03,06,10,11,995.00
2016,03,06,10,12,995.00
2016,03,06,10,13,995.00
2016,03,06,10,14,995.20
2016,03,06,10,15,995.20
2016,03,06,10,16,995.20
2016,03,06,10,17,995.20
2016,03,06,10,18,995.20
2016,03,06,10,19,995.20
2016,03,06,10,20,995.20
2016,03,06,10,21,995.20
2016,03,06,10,22,995.20
2016,03,06,10,23,995.20
2016,03,06,10,24,995.20
2016,03,06,10,25,995.20
2016,03,06,10,26,995.20
2016,03,06,10,27,995.20
2016,03,06,10,28,995.20
2016,03,06,10,29,995.20
2016,03,06,10,30,995.20
2016,03,06,10,31,995.20
2016,03,06,10,32,995.20
2016,03,06,10,33,995.20
2016,03,06,10,34,995.20
2016,03,06,10,35,995.20
2016,03,06,10,36,995.20
2016,03,06,10,37,995.20
2016,03,06,10,38,995.20
2016,03,06,10,39,995.20
2016,03,06,10,40,995.20
2016,03,06,10,47,995.20
2016,03,06,10,48,995.20
2016,03,06,10,49,995.20
2016,03,06,10,50,995.20
2016,03,06,10,51,995.20
2016,03,06,10,52,995.20
2016,03,06,10,53,995.20
2016,03,06,10,54,995.20
2016,03,06,10,55,995.20
2016,03,06,10,58,995.20
2016,03,06,10,59,995.60
2016,03,06,11,00,995.60
2016,03,06,11,01,995.60
2016,03,06,11,02,995.60
2016,03,06,11,03,995.60
2016,03,06,11,04,995.60
2016,03,06,11,05,995.60
2016,03,06,11,06,995.60
2016,03,06,11,07,995.60
2016,03,06,11,08,995.60
2016,03,06,11,09,995.60
2016,03,06,11,10,995.60
2016,03,06,11,11,995.60
2016,03,06,11,12,995.60
2016,03,06,11,13,995.60
2016,03,06,11,14,996.20
2016,03,06,11,15,996.20
2016,03,06,11,16,996.20
2016,03,06,11,17,996.20
2016,03,06,11,18,996.20
2016,03,06,11,19,996.20
2016,03,06,11,20,996.20
2016,03,06,11,21,996.20
2016,03,06,11,22,996.20
2016,03,06,11,23,996.20
2016,03,06,11,24,996.20
2016,03,06,11,25,996.20
2016,03,06,11,26,996.20
2016,03,06,11,27,996.20
2016,03,06,11,28,996.20
2016,03,06,11,29,996.30
2016,03,06,11,32,996.30
2016,03,06,11,33,996.30
2016,03,06,11,34,996.30
2016,03,06,11,35,996.30
2016,03,06,11,36,996.30
2016,03,06,11,37,996.30
2016,03,06,11,38,996.30
2016,03,06,11,39,996.30
2016,03,06,11,40,996.30
2016,03,06,11,43,996.30
2016,03,06,11,44,996.30
2016,03,06,11,45,996.30
2016,03,06,11,46,996.30
2016,03,06,11,47,996.30
2016,03,06,11,48,996.30
2016,03,06,11,49,996.30
2016,03,06,11,50,996.30
2016,03,06,11,51,996.30
2016,03,06,11,52,996.30
2016,03,06,11,53,996.30
2016,03,06,11,54,996.30
2016,03,06,11,55,996.30
2016,03,06,11,56,996.30
2016,03,06,11,57,996.30
2016,03,06,11,58,996.30
2016,03,06,11,59,996.80
2016,03,06,12,00,996.80
2016,03,06,12,01,996.80
2016,03,06,12,02,996.80
2016,03,06,12,03,996.80
2016,03,06,12,04,996.80
2016,03,06,12,05,996.80
2016,03,06,12,07,996.80
2016,03,06,12,08,996.80
2016,03,06,12,09,996.80
2016,03,06,12,10,996.80
2016,03,06,12,12,996.80
2016,03,06,12,13,996.80
2016,03,06,12,14,996.90
2016,03,06,12,15,996.90
2016,03,06,12,16,996.90
2016,03,06,12,17,996.90
2016,03,06,12,18,996.90
2016,03,06,12,19,996.90
2016,03,06,12,20,996.90
2016,03,06,12,21,996.90
2016,03,06,12,22,996.90
2016,03,06,12,23,996.90
2016,03,06,12,24,996.90
2016,03,06,12,25,996.90
2016,03,06,12,26,996.90
2016,03,06,12,27,996.90
2016,03,06,12,28,996.90
2016,03,06,12,29,997.10
2016,03,06,12,30,997.10
2016,03,06,12,31,997.10
2016,03,06,12,32,997.10
2016,03,06,12,33,997.10
2016,03,06,12,34,997.10
2016,03,06,12,35,997.10
2016,03,06,12,36,997.10
2016,03,06,12,37,997.10
2016,03,06,12,38,997.10
2016,03,06,12,39,997.10
2016,03,06,12,41,997.10
2016,03,06,12,42,997.10
2016,03,06,12,43,997.10
2016,03,06,12,44,997.30
2016,03,06,12,45,997.30
2016,03,06,12,46,997.30
2016,03,06,12,47,997.30
2016,03,06,12,49,997.30
2016,03,06,12,51,997.30
2016,03,06,12,52,997.30
2016,03,06,12,53,997.30
2016,03,06,12,54,997.30
2016,03,06,12,55,997.30
2016,03,06,12,56,997.30
2016,03,06,12,57,997.30
2016,03,06,12,58,997.30
2016,03,06,12,59,997.10
2016,03,06,13,00,997.10
2016,03,06,13,01,997.10
2016,03,06,13,02,997.10
2016,03,06,13,03,997.10
2016,03,06,13,04,997.10
2016,03,06,13,05,997.10
2016,03,06,13,06,997.10
2016,03,06,13,07,997.10
2016,03,06,13,08,997.10
2016,03,06,13,09,997.10
2016,03,06,13,10,997.10
2016,03,06,13,11,997.10
2016,03,06,13,12,997.10
2016,03,06,13,13,997.10
2016,03,06,13,14,997.20
2016,03,06,13,15,997.20
2016,03,06,13,16,997.20
2016,03,06,13,17,997.20
2016,03,06,13,18,997.20
2016,03,06,13,19,997.20
2016,03,06,13,20,997.20
2016,03,06,13,21,997.20
2016,03,06,13,22,997.20
2016,03,06,13,23,997.20
2016,03,06,13,24,997.20
2016,03,06,13,25,997.20
2016,03,06,13,26,997.20
2016,03,06,13,27,997.20
2016,03,06,13,28,997.20
2016,03,06,13,29,997.10
2016,03,06,13,30,997.10
2016,03,06,13,31,997.10
2016,03,06,13,32,997.10
2016,03,06,13,33,997.10
2016,03,06,13,34,997.10
2016,03,06,13,35,997.10
2016,03,06,13,36,997.10
2016,03,06,13,37,997.10
2016,03,06,13,38,997.10
2016,03,06,13,41,997.10
2016,03,06,13,42,997.10
2016,03,06,13,43,997.10
2016,03,06,13,44,997.30
2016,03,06,13,45,997.30
2016,03,06,13,46,997.30
2016,03,06,13,47,997.30
2016,03,06,13,48,997.30
2016,03,06,13,49,997.30
2016,03,06,13,50,997.30
2016,03,06,13,51,997.30
2016,03,06,13,52,997.30
2016,03,06,13,53,997.30
2016,03,06,13,54,997.30
2016,03,06,13,55,997.30
2016,03,06,13,56,997.30
2016,03,06,13,57,997.30
2016,03,06,13,58,997.30
2016,03,06,13,59,997.30
2016,03,06,14,00,997.30
2016,03,06,14,01,997.30
2016,03,06,14,03,997.30
2016,03,06,14,04,997.30
2016,03,06,14,05,997.30
2016,03,06,14,06,997.30
2016,03,06,14,09,997.30
2016,03,06,14,11,997.30
2016,03,06,14,13,997.30
2016,03,06,14,15,997.70
2016,03,06,14,16,997.70
2016,03,06,14,17,997.70
2016,03,06,14,18,997.70
2016,03,06,14,19,997.70
2016,03,06,14,20,997.70
2016,03,06,14,21,997.70
2016,03,06,14,22,997.70
2016,03,06,14,23,997.70
2016,03,06,14,24,997.70
2016,03,06,14,25,997.70
2016,03,06,14,26,997.70
2016,03,06,14,27,997.70
2016,03,06,14,28,997.70
2016,03,06,14,29,997.90
2016,03,06,14,30,997.90
2016,03,06,14,31,997.90
2016,03,06,14,32,997.90
2016,03,06,14,33,997.90
2016,03,06,14,34,997.90
2016,03,06,14,35,997.90
2016,03,06,14,36,997.90
2016,03,06,14,37,997.90
2016,03,06,14,38,997.90
2016,03,06,14,40,997.90
2016,03,06,14,41,997.90
2016,03,06,14,42,997.90
2016,03,06,14,43,997.90
2016,03,06,14,44,997.90
2016,03,06,14,45,997.90
2016,03,06,14,46,997.90
2016,03,06,14,47,997.90
2016,03,06,14,48,997.90
2016,03,06,14,49,997.90
2016,03,06,14,50,997.90
2016,03,06,14,51,997.90
2016,03,06,14,52,997.90
2016,03,06,14,53,997.90
2016,03,06,14,55,997.90
2016,03,06,14,56,997.90
2016,03,06,14,57,997.90
2016,03,06,14,58,997.90
2016,03,06,14,59,997.90
2016,03,06,15,00,997.90
2016,03,06,15,01,997.90
2016,03,06,15,02,997.90
2016,03,06,15,03,997.90
2016,03,06,15,04,997.90
2016,03,06,15,05,997.90
2016,03,06,15,06,997.90
2016,03,06,15,07,997.90
2016,03,06,15,08,997.90
2016,03,06,15,09,997.90
2016,03,06,15,10,997.90
2016,03,06,15,11,997.90
2016,03,06,15,12,997.90
2016,03,06,15,13,997.90
2016,03,06,15,14,997.90
2016,03,06,15,15,997.90
2016,03,06,15,16,997.90
2016,03,06,15,17,997.90
2016,03,06,15,18,997.90
2016,03,06,15,19,997.90
2016,03,06,15,20,997.90
2016,03,06,15,21,997.90
2016,03,06,15,22,997.90
2016,03,06,15,23,997.90
2016,03,06,15,24,997.90
2016,03,06,15,25,997.90
2016,03,06,15,26,997.90
2016,03,06,15,27,997.90
2016,03,06,15,28,997.90
2016,03,06,15,29,998.40
2016,03,06,15,30,998.40
2016,03,06,15,31,998.40
2016,03,06,15,32,998.40
2016,03,06,15,33,998.40
2016,03,06,15,34,998.40
2016,03,06,15,35,998.40
2016,03,06,15,36,998.40
2016,03,06,15,37,998.40
2016,03,06,15,38,998.40
2016,03,06,15,39,998.40
2016,03,06,15,40,998.40
2016,03,06,15,41,998.40
2016,03,06,15,42,998.40
2016,03,06,15,43,998.40
2016,03,06,15,44,998.40
2016,03,06,15,45,998.40
2016,03,06,15,46,998.40
2016,03,06,15,47,998.40
2016,03,06,15,48,998.40
2016,03,06,15,49,998.40
2016,03,06,15,50,998.40
2016,03,06,15,51,998.40
2016,03,06,15,52,998.40
2016,03,06,15,53,998.40
2016,03,06,15,54,998.40
2016,03,06,15,55,998.40
2016,03,06,15,56,998.40
2016,03,06,15,57,998.40
2016,03,06,15,58,998.40
2016,03,06,15,59,998.50
2016,03,06,16,00,998.50
2016,03,06,16,01,998.50
2016,03,06,16,02,998.50
2016,03,06,16,03,998.50
2016,03,06,16,04,998.50
2016,03,06,16,05,998.50
2016,03,06,16,06,998.50
2016,03,06,16,07,998.50
2016,03,06,16,08,998.50
2016,03,06,16,09,998.50
2016,03,06,16,10,998.50
2016,03,06,16,11,998.50
2016,03,06,16,12,998.50
2016,03,06,16,13,998.50
2016,03,06,16,14,998.50
2016,03,06,16,15,998.50
2016,03,06,16,16,998.50
2016,03,06,16,17,998.50
2016,03,06,16,18,998.50
2016,03,06,16,19,998.50
2016,03,06,16,20,998.50
2016,03,06,16,21,998.50
2016,03,06,16,22,998.50
2016,03,06,16,23,998.50
2016,03,06,16,24,998.50
2016,03,06,16,25,998.50
2016,03,06,16,26,998.50
2016,03,06,16,27,998.50
2016,03,06,16,28,998.50
2016,03,06,16,29,998.50
2016,03,06,16,30,998.50
2016,03,06,16,31,998.50
2016,03,06,16,33,998.50
2016,03,06,16,34,998.50
2016,03,06,16,35,998.50
2016,03,06,16,36,998.50
2016,03,06,16,37,998.50
2016,03,06,16,38,998.50
2016,03,06,16,39,998.50
2016,03,06,16,40,998.50
2016,03,06,16,41,998.50
2016,03,06,16,42,998.50
2016,03,06,16,43,998.50
2016,03,06,16,44,998.80
2016,03,06,16,45,998.80
2016,03,06,16,46,998.80
2016,03,06,16,47,998.80
2016,03,06,16,48,998.80
2016,03,06,16,49,998.80
2016,03,06,16,50,998.80
2016,03,06,16,51,998.80
2016,03,06,16,52,998.80
2016,03,06,16,53,998.80
2016,03,06,16,54,998.80
2016,03,06,16,55,998.80
2016,03,06,16,56,998.80
2016,03,06,16,57,998.80
2016,03,06,16,58,998.80
2016,03,06,16,59,998.80
2016,03,06,17,00,998.80
2016,03,06,17,01,998.80
2016,03,06,17,03,998.80
2016,03,06,17,04,998.80
2016,03,06,17,05,998.80
2016,03,06,17,06,998.80
2016,03,06,17,07,998.80
2016,03,06,17,08,998.80
2016,03,06,17,09,998.80
2016,03,06,17,11,998.80
2016,03,06,17,12,998.80
2016,03,06,17,13,998.80
2016,03,06,17,14,998.90
2016,03,06,17,15,998.90
2016,03,06,17,16,998.90
2016,03,06,17,17,998.90
2016,03,06,17,18,998.90
2016,03,06,17,19,998.90
2016,03,06,17,20,998.90
2016,03,06,17,21,998.90
2016,03,06,17,22,998.90
2016,03,06,17,23,998.90
2016,03,06,17,24,998.90
2016,03,06,17,25,998.90
2016,03,06,17,26,998.90
2016,03,06,17,27,998.90
2016,03,06,17,28,998.90
2016,03,06,17,29,999.10
2016,03,06,17,30,999.10
2016,03,06,17,31,999.10
2016,03,06,17,32,999.10
2016,03,06,17,33,999.10
2016,03,06,17,34,999.10
2016,03,06,17,35,999.10
2016,03,06,17,36,999.10
2016,03,06,17,37,999.10